カタログに戻る

STARLINK-34883

運用中通信VLEO
NORAD 65426·PAYLOAD·🇺🇸 United States

打ち上げ Aug 31, 2025 から Cape Canaveral Space Force Station

Loading…

次のパス (今後24時間)

TLE

最新Source: CelesTrak SupGP

元期: Sep 15, 2026, 02:45 UTC

1 65426C 25192Y   26258.11506944 -.00028350  00000+0 -91166-3 0  2588
2 65426  53.1573  71.2584 0001209  87.8700 263.0661 15.31716354    19

AllMySatでSTARLINK-34883をリアルタイム追跡

Download on the App Store